E1646 Weather Reports


Display with metric or nautical units.
time (UTC)temp
F
wind
direction
speed
MPH
gust
MPH
rain 1hr
in
rain 24hr
in
rain mn
in
humidity
%
barometer
mb
20260506090031 0 0.0 0.0 0.00 0.01 0.00 1007.2
20260506084526 0 0.0 0.0 0.00 0.01 0.00 1007.3
20260506083019 0 0.0 0.0 0.00 0.01 0.00 1007.6
20260506081515 0 0.0 0.0 0.00 0.01 0.00 1007.6
20260506073002 0 0.0 0.0 0.00 0.01 0.00 1007.7
20260506071555 0 0.0 0.0 0.00 0.01 0.00 1007.6
20260506061539 65 167 9.0 20.0 0.00 0.01 0.00 66 1008.2
20260506044515 66 242 4.0 17.0 0.00 0.01 0.00 63 1009.0
20260506043013 66 179 7.0 18.0 0.00 0.01 0.00 62 1008.8
20260506041508 67 172 5.0 15.0 0.00 0.01 0.00 61 1008.7
20260506040004 67 164 6.0 18.0 0.00 0.01 0.01 60 1008.6
20260506034501 68 90 6.0 14.0 0.00 0.01 0.01 59 1008.6
20260506033100 68 284 5.0 17.0 0.00 0.01 0.01 57 1008.5
20260506031605 69 250 6.0 14.0 0.00 0.01 0.01 54 1008.5
20260506030056 69 113 8.0 19.0 0.00 0.01 0.01 51 1008.5
20260506024554 70 170 5.0 18.0 0.00 0.01 0.01 50 1008.2
20260506023050 70 175 8.0 22.0 0.00 0.01 0.01 49 1008.4
20260506021556 71 194 10.0 21.0 0.00 0.01 0.01 48 1008.4
20260506020047 71 195 5.0 23.0 0.00 0.01 0.01 48 1008.3
20260506014545 71 118 7.0 16.0 0.00 0.01 0.01 47 1008.3
20260506013045 72 137 5.0 15.0 0.00 0.01 0.01 44 1008.1
20260506011541 72 128 8.0 22.0 0.00 0.01 0.01 42 1008.0
20260506010043 73 152 5.0 17.0 0.00 0.01 0.01 41 1007.8
20260506004538 73 127 6.0 14.0 0.00 0.01 0.01 40 1007.8
20260506003038 73 184 8.0 15.0 0.00 0.01 0.01 39 1007.8
20260506001534 73 219 9.0 18.0 0.00 0.01 0.01 39 1007.8
20260506000033 73 125 5.0 14.0 0.00 0.01 0.01 39 1007.6
20260505234531 73 281 6.0 13.0 0.00 0.01 0.01 38 1007.5
20260505233030 74 158 6.0 15.0 0.00 0.01 0.01 37 1007.3
20260505231530 75 194 7.0 19.0 0.00 0.01 0.01 37 1007.0
20260505230028 75 238 6.0 18.0 0.00 0.01 0.01 36 1007.0
20260505224520 76 273 5.0 15.0 0.00 0.01 0.01 35 1006.6
20260505223017 76 217 8.0 18.0 0.00 0.01 0.01 34 1006.5
20260505221516 78 248 6.0 21.0 0.00 0.01 0.01 33 1006.3
20260505220013 78 139 8.0 18.0 0.00 0.01 0.01 33 1006.0
20260505214513 77 143 7.0 16.0 0.00 0.01 0.01 36 1006.3
20260505213008 78 195 2.0 14.0 0.00 0.01 0.01 37 1006.2
20260505211612 77 283 8.0 22.0 0.00 0.01 0.01 35 1006.1
20260505210002 80 292 5.0 17.0 0.00 0.01 0.01 34 1005.9
20260505204602 80 302 5.0 15.0 0.00 0.01 0.01 34 1005.8
20260505203059 80 179 6.0 14.0 0.00 0.01 0.01 34 1005.9
20260505201558 79 178 4.0 12.0 0.00 0.01 0.01 35 1006.3
20260505200051 80 95 5.0 16.0 0.00 0.01 0.01 34 1006.3
20260505194606 80 100 4.0 14.0 0.00 0.01 0.01 35 1006.3
20260505193046 80 180 5.0 16.0 0.00 0.01 0.01 35 1006.6
20260505191543 80 114 5.0 14.0 0.00 0.01 0.01 33 1006.7
20260505190045 79 164 6.0 17.0 0.00 0.01 0.01 36 1007.1
20260505184538 80 239 6.0 18.0 0.00 0.01 0.01 36 1007.2
20260505183039 79 262 5.0 22.0 0.00 0.01 0.01 38 1007.5
20260505181532 79 91 5.0 14.0 0.00 0.01 0.01 38 1007.7
20260505180032 79 231 4.0 15.0 0.00 0.01 0.01 37 1007.7
20260505174527 78 183 8.0 17.0 0.00 0.01 0.01 37 1007.9
20260505173021 77 139 7.0 20.0 0.00 0.01 0.01 40 1008.1
20260505171522 78 224 8.0 19.0 0.00 0.01 0.01 40 1007.8
20260505170017 77 93 7.0 16.0 0.00 0.01 0.01 41 1008.1
20260505164510 77 201 5.0 15.0 0.00 0.01 0.01 42 1008.4
20260505163010 76 310 7.0 11.0 0.00 0.01 0.01 41 1008.7
20260505161505 77 210 4.0 12.0 0.00 0.01 0.01 39 1009.1
20260505153054 74 215 5.0 11.0 0.00 0.01 0.01 47 1009.5
20260505151549 74 257 4.0 12.0 0.00 0.01 0.01 48 1009.3
20260505130114 67 257 4.0 9.0 0.00 0.01 0.01 58 1009.8
20260505124514 67 125 5.0 14.0 0.00 0.01 0.01 57 1009.2
20260505123005 66 149 6.0 13.0 0.00 0.01 0.01 59 1009.3
20260505121559 63 124 6.0 11.0 0.00 0.01 0.01 63 1009.4
20260505120109 62 119 5.0 13.0 0.00 0.01 0.01 64 1009.3
20260505114549 61 146 5.0 21.0 0.01 0.01 0.01 66 1009.5
20260505113052 60 197 6.0 17.0 0.01 0.01 0.01 67 1009.4
20260505111542 59 101 5.0 13.0 0.01 0.01 0.01 71 1009.2
20260505101524 0 0.0 0.0 0.00 0.00 0.00 1009.7
20260505100026 0 0.0 0.0 0.00 0.00 0.00 1009.2
20260505094517 0 0.0 0.0 0.00 0.00 0.00 1008.9
20260505093010 0 0.0 0.0 0.00 0.00 0.00 1008.8
20260505091505 0 0.0 0.0 0.00 0.00 0.00 1008.5